This is the latest recevied weather packets stored in our database for station/object KD4WLE. If no packets are shown the sender has not sent any weather packets the latest 10 day(s).
| Time | Temp. | Humidity | Pressure | Rain* | Wind** | Luminosity | Snow |
|---|---|---|---|---|---|---|---|
| 1777814711 | 20.56° C | 84% | 1017.7 hPa | 0 mm | - | 105 W/m² | - |
| 1777814408 | 20.56° C | 84% | 1017.5 hPa | 0 mm | - | 116 W/m² | - |
| 1777814105 | 20.56° C | 84% | 1017.4 hPa | 0 mm | - | 102 W/m² | - |
| 1777813801 | 20.56° C | 85% | 1017.6 hPa | 0 mm | - | 111 W/m² | - |
| 1777813499 | 20.56° C | 87% | 1017.4 hPa | 0 mm | - | 105 W/m² | - |
| 1777813196 | 20° C | 89% | 1017.5 hPa | 0 mm | - | 92 W/m² | - |
| 1777812894 | 18.89° C | 92% | 1017.5 hPa | 0 mm | - | 83 W/m² | - |
| 1777812590 | 18.33° C | 97% | 1017.3 hPa | 0 mm | - | 59 W/m² | - |
| 1777812288 | 18.33° C | 99% | 1017.3 hPa | 0 mm | - | 54 W/m² | - |
| 1777811986 | 18.33° C | 99% | 1017.2 hPa | 0 mm | - | 69 W/m² | - |
| 1777811684 | 17.78° C | 99% | 1017.2 hPa | 0 mm | - | 63 W/m² | - |
| 1777811380 | 17.78° C | 99% | 1017.3 hPa | 0 mm | - | 62 W/m² | - |
| 1777811077 | 17.78° C | 99% | 1017 hPa | 0 mm | - | 54 W/m² | - |
| 1777810774 | 17.78° C | 99% | 1017 hPa | 0 mm | - | 74 W/m² | - |
| 1777810471 | 17.78° C | 99% | 1016.8 hPa | 0 mm | - | 70 W/m² | - |
| 1777810167 | 17.78° C | 99% | 1016.8 hPa | 0 mm | - | 90 W/m² | - |
| 1777809864 | 17.78° C | 99% | 1016.6 hPa | 0 mm | - | 72 W/m² | - |
| 1777809562 | 17.22° C | 99% | 1016.4 hPa | 0 mm | - | 67 W/m² | - |
| 1777809260 | 17.22° C | 99% | 1016.8 hPa | 0 mm | - | 61 W/m² | - |
| 1777808957 | 17.22° C | 99% | 1016.8 hPa | 0 mm | - | 37 W/m² | - |
| 1777808654 | 17.22° C | 99% | 1016.7 hPa | 0 mm | - | 33 W/m² | - |
| 1777808351 | 17.22° C | 99% | 1016.9 hPa | 0 mm | - | 23 W/m² | - |
| 1777808050 | 17.22° C | 99% | 1016.6 hPa | 0 mm | - | 28 W/m² | - |
| 1777807746 | 17.22° C | 99% | 1016.6 hPa | 0 mm | - | 36 W/m² | - |
| 1777807445 | 17.22° C | 99% | 1016.6 hPa | 0 mm | - | 27 W/m² | - |
* Rain latest hour (hover to see other rain measurements)
** Current wind speed in m/s (hover to see current wind gust speed)